Location: Unspecified
(52.4292°N, 19.3359°E)
Time: 16:54:39
(UTC+02:00)

Transit 2A Rocket - Pass Details

Date: 22 May 2024
Orbit: 583 x 910 km, 66.7° (Epoch: 14 June)

Event Time Altitude Azimuth Distance (km) Brightness Sun altitude
Rises 05:30:46 0° 224° (SW) 3,009 7.5 6.2°
Reaches altitude 10° 05:32:59 10° 227° (SW) 2,144 6.8 6.5°
Maximum altitude 05:37:53 73° 312° (NW) 778 5.2 7.2°
Drops below altitude 10° 05:43:19 10° 38° (NE) 2,378 8.8 8.0°
Sets 05:45:53 0° 40° (NE) 3,363 9.6 8.3°
